This is the latest recevied weather packets stored in our database for station/object KF0DL. If no packets are shown the sender has not sent any weather packets the latest 10 day(s).
| Time | Temp. | Humidity | Pressure | Rain* | Wind** | Luminosity | Snow |
|---|---|---|---|---|---|---|---|
| 1777502019 | 11.11° C | 29% | 1022.9 hPa | 0 mm | - | - | - |
| 1777501705 | 11.11° C | 28% | 1022.6 hPa | 0 mm | - | - | - |
| 1777501411 | 11.67° C | 28% | 1022.6 hPa | 0 mm | - | - | - |
| 1777501119 | 11.67° C | 28% | 1022.6 hPa | 0 mm | - | - | - |
| 1777500810 | 11.67° C | 28% | 1022.6 hPa | 0 mm | - | - | - |
| 1777500517 | 11.11° C | 29% | 1021.9 hPa | 0 mm | - | - | - |
| 1777500204 | 11.11° C | 28% | 1021.9 hPa | 0 mm | - | - | - |
| 1777499911 | 11.11° C | 29% | 1021.9 hPa | 0 mm | - | - | - |
| 1777499618 | 11.11° C | 29% | 1022 hPa | 0 mm | - | - | - |
| 1777499306 | 11.11° C | 32% | 1022 hPa | 0 mm | - | - | - |
| 1777499011 | 10.56° C | 32% | 1022 hPa | 0 mm | - | - | - |
| 1777498719 | 10.56° C | 31% | 1022 hPa | 0 mm | - | - | - |
| 1777498406 | 10.56° C | 31% | 1022 hPa | 0 mm | - | - | - |
| 1777498113 | 11.11° C | 31% | 1022 hPa | 0 mm | - | - | - |
| 1777497803 | 11.11° C | 31% | 1021.9 hPa | 0 mm | - | - | - |
| 1777497509 | 11.11° C | 31% | 1021.9 hPa | 0 mm | - | - | - |
| 1777497216 | 11.11° C | 31% | 1021.9 hPa | 0 mm | - | - | - |
| 1777496902 | 11.67° C | 29% | 1022.4 hPa | 0 mm | - | - | - |
| 1777496610 | 11.67° C | 28% | 1022.4 hPa | 0 mm | - | - | - |
| 1777496318 | 11.67° C | 30% | 1022.4 hPa | 0 mm | - | - | - |
| 1777496005 | 11.11° C | 32% | 1022.6 hPa | 0 mm | - | - | - |
| 1777495711 | 11.11° C | 31% | 1022.6 hPa | 0 mm | - | - | - |
| 1777495401 | 11.11° C | 31% | 1022.3 hPa | 0 mm | - | - | - |
| 1777495112 | 11.67° C | 30% | 1022.3 hPa | 0 mm | - | - | - |
| 1777494799 | 11.67° C | 31% | 1022.3 hPa | 0 mm | - | - | - |
* Rain latest hour (hover to see other rain measurements)
** Current wind speed in m/s (hover to see current wind gust speed)